GW0714 Weather Reports


Display with metric or nautical units.
time (UTC)temp
F
wind
direction
speed
MPH
gust
MPH
rain 1hr
in
rain 24hr
in
rain mn
in
humidity
%
barometer
mb
20260510194546 75 149 3.0 7.0 0.00 0.00 0.00 62 1015.4
20260510194029 75 147 1.0 7.0 0.00 0.00 0.00 63 1015.4
20260510193529 75 159 2.0 8.0 0.00 0.00 0.00 60 1015.4
20260510193040 75 15 1.0 8.0 0.00 0.00 0.00 63 1015.4
20260510192529 74 115 4.0 9.0 0.00 0.00 0.00 63 1015.5
20260510192028 74 49 2.0 9.0 0.00 0.00 0.00 64 1015.4
20260510191538 74 125 3.0 9.0 0.00 0.00 0.00 65 1015.5
20260510191029 74 142 4.0 8.0 0.00 0.00 0.00 64 1015.4
20260510190532 75 102 3.0 9.0 0.00 0.00 0.00 64 1015.4
20260510190036 75 132 4.0 9.0 0.00 0.00 0.00 65 1015.4
20260510185530 75 155 3.0 8.0 0.00 0.00 0.00 65 1015.4
20260510185030 75 63 4.0 9.0 0.00 0.00 0.00 64 1015.4
20260510184536 75 158 4.0 9.0 0.00 0.00 0.00 63 1015.3
20260510184030 77 123 3.0 8.0 0.00 0.00 0.00 63 1015.4
20260510183534 77 117 1.0 8.0 0.00 0.00 0.00 62 1015.4
20260510183045 77 181 1.0 8.0 0.00 0.00 0.00 62 1015.3
20260510182529 76 46 3.0 8.0 0.00 0.00 0.00 63 1015.3
20260510182029 76 99 1.0 4.0 0.00 0.00 0.00 66 1015.2
20260510181546 75 80 1.0 6.0 0.00 0.00 0.00 63 1015.2
20260510181031 75 106 1.0 7.0 0.00 0.00 0.00 64 1015.2
20260510180529 74 32 2.0 7.0 0.00 0.00 0.00 64 1015.2
20260510180042 74 164 1.0 7.0 0.00 0.00 0.00 67 1015.3
20260510175528 73 154 2.0 7.0 0.00 0.00 0.00 66 1015.2
20260510175030 74 155 2.0 6.0 0.00 0.00 0.00 66 1015.2
20260510174537 73 114 1.0 6.0 0.00 0.00 0.00 68 1015.2
20260510174028 74 140 2.0 7.0 0.00 0.00 0.00 66 1015.2
20260510173530 74 105 2.0 9.0 0.00 0.00 0.00 66 1015.2
20260510173044 75 121 3.0 9.0 0.00 0.00 0.00 65 1015.0
20260510172530 77 178 3.0 6.0 0.00 0.00 0.00 62 1015.0
20260510172030 78 352 2.0 5.0 0.00 0.00 0.00 51 1015.1
20260510171543 78 32 3.0 5.0 0.00 0.00 0.00 50 1015.0
20260510171029 78 0 1.0 3.0 0.00 0.00 0.00 50 1015.0
20260510170529 78 0 1.0 5.0 0.00 0.00 0.00 50 1015.1
20260510170043 78 338 2.0 5.0 0.00 0.00 0.00 51 1015.0
20260510165528 77 267 0.0 4.0 0.00 0.00 0.00 51 1015.0
20260510165033 77 224 0.0 7.0 0.00 0.00 0.00 52 1014.9
20260510164548 77 306 1.0 7.0 0.00 0.00 0.00 53 1014.9
20260510164026 77 333 0.0 2.0 0.00 0.00 0.00 54 1014.8
20260510163526 76 309 0.0 2.0 0.00 0.00 0.00 53 1014.8
20260510163038 76 244 0.0 3.0 0.00 0.00 0.00 55 1014.8
20260510162531 75 0 0.0 3.0 0.00 0.00 0.00 58 1014.8
20260510162028 75 0 0.0 2.0 0.00 0.00 0.00 58 1014.8
20260510161537 74 0 0.0 2.0 0.00 0.00 0.00 59 1014.8
20260510161028 74 0 0.0 2.0 0.00 0.00 0.00 60 1014.7
20260510160530 73 279 0.0 2.0 0.00 0.00 0.00 61 1014.8
20260510160034 73 0 0.0 2.0 0.00 0.00 0.00 61 1014.7
20260510155531 73 234 0.0 2.0 0.00 0.00 0.00 61 1014.7
20260510155030 72 0 0.0 2.0 0.00 0.00 0.00 61 1014.8
20260510154550 72 288 0.0 2.0 0.00 0.00 0.00 60 1014.7
20260510154034 72 262 0.0 2.0 0.00 0.00 0.00 62 1014.7
20260510153529 71 0 0.0 2.0 0.00 0.00 0.00 62 1014.7
20260510153040 71 255 0.0 2.0 0.00 0.00 0.00 63 1014.6
20260510152530 70 0 0.0 2.0 0.00 0.00 0.00 63 1014.6
20260510152030 70 0 0.0 2.0 0.00 0.00 0.00 64 1014.6
20260510151536 70 0 0.0 2.0 0.00 0.00 0.00 65 1014.5
20260510151029 69 0 0.0 2.0 0.00 0.00 0.00 66 1014.5
20260510150533 69 0 0.0 2.0 0.00 0.00 0.00 67 1014.5
20260510150040 68 0 0.0 2.0 0.00 0.00 0.00 67 1014.5
20260510145529 68 0 0.0 2.0 0.00 0.00 0.00 67 1014.5
20260510145029 67 0 0.0 2.0 0.00 0.00 0.00 67 1014.5
20260510144547 67 0 0.0 1.0 0.00 0.00 0.00 69 1014.5
20260510144031 66 0 0.0 1.0 0.00 0.00 0.00 71 1014.4
20260510143529 66 0 0.0 1.0 0.00 0.00 0.00 72 1014.5
20260510143054 66 0 0.0 1.0 0.00 0.00 0.00 72 1014.4
20260510142530 66 0 0.0 1.0 0.00 0.00 0.00 72 1014.4
20260510142031 66 278 0.0 2.0 0.00 0.00 0.00 72 1014.3
20260510141542 66 0 0.0 2.0 0.00 0.00 0.00 71 1014.3
20260510141030 66 0 0.0 2.0 0.00 0.00 0.00 72 1014.2
20260510140530 66 0 0.0 3.0 0.00 0.00 0.00 72 1014.2
20260510140042 66 0 0.0 3.0 0.00 0.00 0.00 72 1014.1
20260510135528 66 0 0.0 3.0 0.00 0.00 0.00 71 1014.0
20260510135029 66 0 0.0 1.0 0.00 0.00 0.00 71 1013.9
20260510134539 66 0 0.0 3.0 0.00 0.00 0.00 71 1013.9
20260510134030 66 0 0.0 4.0 0.00 0.00 0.00 69 1013.9
20260510133526 66 0 0.0 6.0 0.00 0.00 0.00 69 1013.8
20260510133038 66 0 0.0 6.0 0.00 0.00 0.00 69 1013.8
20260510132532 66 0 0.0 4.0 0.00 0.00 0.00 69 1013.7
20260510132031 66 0 0.0 4.0 0.00 0.00 0.00 69 1013.7
20260510131545 65 228 0.0 5.0 0.00 0.00 0.00 70 1013.6
20260510131031 65 0 0.0 5.0 0.00 0.00 0.00 70 1013.6
20260510130529 65 285 0.0 3.0 0.00 0.00 0.00 70 1013.6
20260510130038 65 240 0.0 4.0 0.00 0.00 0.00 70 1013.5
20260510125532 65 205 1.0 5.0 0.00 0.00 0.00 70 1013.5
20260510125030 65 235 0.0 5.0 0.00 0.00 0.00 71 1013.5
20260510124539 65 0 1.0 4.0 0.00 0.00 0.00 71 1013.5
20260510124030 65 239 0.0 4.0 0.00 0.00 0.00 71 1013.6
20260510123531 65 233 0.0 3.0 0.00 0.00 0.00 72 1013.6
20260510123046 65 235 1.0 3.0 0.00 0.00 0.00 73 1013.5
20260510122532 65 251 0.0 3.0 0.00 0.00 0.00 73 1013.6
20260510122029 65 0 0.0 3.0 0.00 0.00 0.00 73 1013.6
20260510121540 65 230 0.0 3.0 0.00 0.00 0.00 73 1013.6
20260510121032 65 0 0.0 3.0 0.00 0.00 0.00 73 1013.6
20260510120529 65 0 0.0 2.0 0.00 0.00 0.00 72 1013.6
20260510120038 66 0 0.0 2.0 0.00 0.00 0.00 72 1013.6
20260510115529 66 238 0.0 5.0 0.00 0.00 0.00 72 1013.6
20260510115027 65 0 0.0 5.0 0.00 0.00 0.00 72 1013.6
20260510114541 65 233 1.0 4.0 0.00 0.00 0.00 72 1013.5
20260510114031 65 210 0.0 4.0 0.00 0.00 0.00 73 1013.6
20260510113533 65 248 1.0 4.0 0.00 0.00 0.00 73 1013.5
20260510113036 65 232 0.0 2.0 0.00 0.00 0.00 73 1013.6
20260510112530 65 0 0.0 3.0 0.00 0.00 0.00 73 1013.5
20260510112029 65 0 0.0 3.0 0.00 0.00 0.00 73 1013.6
20260510111542 65 222 0.0 3.0 0.00 0.00 0.00 73 1013.6
20260510111029 65 0 0.0 3.0 0.00 0.00 0.00 73 1013.6
20260510110529 65 221 0.0 3.0 0.00 0.00 0.00 74 1013.6
20260510110042 65 0 0.0 3.0 0.00 0.00 0.00 74 1013.5
20260510105530 65 0 1.0 4.0 0.00 0.00 0.00 75 1013.5
20260510105030 65 0 0.0 4.0 0.00 0.00 0.00 75 1013.6
20260510104537 65 242 0.0 4.0 0.00 0.00 0.00 75 1013.6
20260510104029 65 225 0.0 4.0 0.00 0.00 0.00 75 1013.5
20260510103530 65 0 0.0 3.0 0.00 0.00 0.00 76 1013.5
20260510103039 65 0 0.0 3.0 0.00 0.00 0.00 76 1013.6
20260510102530 64 248 0.0 3.0 0.00 0.00 0.00 77 1013.6
20260510102030 64 227 1.0 3.0 0.00 0.00 0.00 77 1013.6
20260510101534 64 0 0.0 3.0 0.00 0.00 0.00 77 1013.6
20260510101029 64 0 0.0 2.0 0.00 0.00 0.00 77 1013.6
20260510100529 64 248 0.0 3.0 0.00 0.00 0.00 77 1013.6
20260510100042 65 0 0.0 3.0 0.00 0.00 0.00 77 1013.6
20260510095530 65 233 0.0 3.0 0.00 0.00 0.00 77 1013.6
20260510095028 65 0 0.0 3.0 0.00 0.00 0.00 77 1013.6
20260510094542 65 211 0.0 2.0 0.00 0.00 0.00 76 1013.5
20260510094029 65 257 0.0 2.0 0.00 0.00 0.00 76 1013.5
20260510093530 65 224 0.0 1.0 0.00 0.00 0.00 76 1013.5
20260510093038 65 0 0.0 1.0 0.00 0.00 0.00 76 1013.5
20260510092530 65 0 0.0 2.0 0.00 0.00 0.00 76 1013.5
20260510092031 66 0 0.0 2.0 0.00 0.00 0.00 75 1013.5
20260510091543 66 0 0.0 2.0 0.00 0.00 0.00 75 1013.5
20260510091030 66 0 0.0 2.0 0.00 0.00 0.00 75 1013.5
20260510090529 66 0 0.0 2.0 0.00 0.00 0.00 75 1013.5
20260510090040 66 0 0.0 2.0 0.00 0.00 0.00 75 1013.5
20260510085531 66 0 0.0 2.0 0.00 0.00 0.00 75 1013.5
20260510085031 66 0 0.0 3.0 0.00 0.00 0.00 75 1013.5
20260510084541 66 0 0.0 3.0 0.00 0.00 0.00 75 1013.5
20260510084032 66 0 0.0 3.0 0.00 0.00 0.00 74 1013.5
20260510083530 66 0 0.0 3.0 0.00 0.00 0.00 74 1013.6
20260510083043 66 235 0.0 3.0 0.00 0.00 0.00 74 1013.6
20260510082531 66 225 0.0 3.0 0.00 0.00 0.00 74 1013.6
20260510082032 66 0 0.0 2.0 0.00 0.00 0.00 74 1013.6
20260510081541 66 231 0.0 2.0 0.00 0.00 0.00 73 1013.6
20260510081032 67 0 0.0 2.0 0.00 0.00 0.00 73 1013.7
20260510080533 67 220 0.0 1.0 0.00 0.00 0.00 73 1013.7
20260510080052 67 0 0.0 1.0 0.00 0.00 0.00 73 1013.8
20260510075531 67 227 0.0 1.0 0.00 0.00 0.00 72 1013.9
20260510075032 67 0 0.0 2.0 0.00 0.00 0.00 72 1013.9
20260510074547 67 0 0.0 2.0 0.00 0.00 0.00 72 1013.9
20260510074031 67 0 0.0 2.0 0.00 0.00 0.00 72 1013.9
20260510073532 67 0 0.0 2.0 0.00 0.00 0.00 72 1013.9
20260510073047 67 240 0.0 2.0 0.00 0.00 0.00 72 1014.0
20260510072531 67 0 0.0 3.0 0.00 0.00 0.00 72 1014.0
20260510072030 67 258 0.0 3.0 0.00 0.00 0.00 72 1014.0
20260510071537 68 0 0.0 3.0 0.00 0.00 0.00 71 1014.0
20260510071031 68 236 0.0 3.0 0.00 0.00 0.00 71 1014.0
20260510070531 68 0 0.0 3.0 0.00 0.00 0.00 71 1013.9
20260510070043 68 0 0.0 2.0 0.00 0.00 0.00 71 1014.0
20260510065531 68 0 0.0 2.0 0.00 0.00 0.00 70 1014.1
20260510065029 68 0 0.0 2.0 0.00 0.00 0.00 71 1014.0
20260510064559 68 0 0.0 1.0 0.00 0.00 0.00 71 1013.9
20260510064031 68 0 0.0 1.0 0.00 0.00 0.00 71 1014.0
20260510063531 68 0 0.0 1.0 0.00 0.00 0.00 71 1013.9
20260510063041 68 241 0.0 2.0 0.00 0.00 0.00 71 1014.0
20260510062532 68 0 0.0 2.0 0.00 0.00 0.00 71 1014.0
20260510062035 68 0 0.0 1.0 0.00 0.00 0.00 71 1014.0
20260510061539 68 269 0.0 1.0 0.00 0.00 0.00 71 1014.0
20260510061031 68 240 0.0 1.0 0.00 0.00 0.00 70 1014.0
20260510060530 68 0 0.0 1.0 0.00 0.00 0.00 70 1014.0
20260510060038 69 0 0.0 1.0 0.00 0.00 0.00 69 1014.0
20260510055607 69 260 0.0 1.0 0.00 0.00 0.00 69 1014.0
20260510055034 69 0 0.0 1.0 0.00 0.00 0.00 69 1014.0
20260510054541 69 0 0.0 2.0 0.00 0.00 0.00 69 1014.0
20260510054030 69 254 0.0 2.0 0.00 0.00 0.00 68 1014.0
20260510053530 69 250 0.0 2.0 0.00 0.00 0.00 68 1014.0
20260510053045 69 0 0.0 2.0 0.00 0.00 0.00 68 1014.0
20260510052530 69 0 0.0 2.0 0.00 0.00 0.00 68 1013.9
20260510052031 69 0 0.0 2.0 0.00 0.00 0.00 68 1014.0
20260510051550 70 270 0.0 1.0 0.00 0.00 0.00 67 1014.0
20260510051034 70 0 0.0 2.0 0.00 0.00 0.00 68 1014.0
20260510050530 70 0 0.0 2.0 0.00 0.00 0.00 67 1013.9
20260510050042 70 244 0.0 1.0 0.00 0.00 0.00 67 1014.0
20260510045530 70 267 0.0 1.0 0.00 0.00 0.00 67 1013.9
20260510045032 70 0 0.0 1.0 0.00 0.00 0.00 66 1013.9
20260510044540 71 261 0.0 1.0 0.00 0.00 0.00 66 1013.9
20260510044031 71 0 0.0 1.0 0.00 0.00 0.00 65 1013.8
20260510043531 71 0 0.0 1.0 0.00 0.00 0.00 64 1013.8
20260510043041 71 0 0.0 1.0 0.00 0.00 0.00 64 1013.8
20260510042534 71 0 0.0 1.0 0.00 0.00 0.00 64 1013.8
20260510042031 72 0 0.0 3.0 0.00 0.00 0.00 63 1013.7
20260510041538 72 0 0.0 3.0 0.00 0.00 0.00 63 1013.6
20260510041031 72 0 0.0 2.0 0.00 0.00 0.00 62 1013.6
20260510040534 72 0 0.0 1.0 0.00 0.00 0.00 62 1013.6
20260510040047 72 0 0.0 3.0 0.00 0.00 0.00 62 1013.6
20260510035531 73 0 0.0 4.0 0.00 0.00 0.00 61 1013.5
20260510035030 73 0 0.0 5.0 0.00 0.00 0.00 60 1013.4
20260510034601 73 0 2.0 5.0 0.00 0.00 0.00 58 1013.4
20260510034031 74 329 2.0 5.0 0.00 0.00 0.00 57 1013.3
20260510033534 75 351 1.0 3.0 0.00 0.00 0.00 58 1013.2
20260510033045 75 327 0.0 1.0 0.00 0.00 0.00 52 1013.1
20260510032531 75 0 0.0 1.0 0.00 0.00 0.00 53 1013.1
20260510032032 76 0 0.0 1.0 0.00 0.00 0.00 53 1013.1
20260510031539 76 0 0.0 1.0 0.00 0.00 0.00 53 1013.1
20260510031031 76 0 0.0 2.0 0.00 0.00 0.00 54 1013.1
20260510030531 76 0 0.0 2.0 0.00 0.00 0.00 55 1013.1
20260510030038 76 5 1.0 4.0 0.00 0.00 0.00 54 1013.1
20260510025529 77 5 1.0 4.0 0.00 0.00 0.00 54 1013.0
20260510025031 77 30 1.0 4.0 0.00 0.00 0.00 54 1013.1
20260510024539 77 5 1.0 4.0 0.00 0.00 0.00 54 1013.0
20260510024033 77 11 1.0 4.0 0.00 0.00 0.00 54 1013.0
20260510023531 78 17 2.0 4.0 0.00 0.00 0.00 54 1012.9
20260510023033 78 325 2.0 4.0 0.00 0.00 0.00 54 1013.0
20260510022531 78 23 2.0 4.0 0.00 0.00 0.00 53 1012.9
20260510022031 78 342 2.0 4.0 0.00 0.00 0.00 52 1013.0
20260510021545 78 351 2.0 4.0 0.00 0.00 0.00 52 1012.9
20260510021030 79 342 0.0 3.0 0.00 0.00 0.00 51 1012.9
20260510020529 79 46 1.0 4.0 0.00 0.00 0.00 50 1012.9
20260510020039 79 343 2.0 4.0 0.00 0.00 0.00 50 1012.9
20260510015530 79 329 2.0 5.0 0.00 0.00 0.00 49 1012.9
20260510015031 80 320 3.0 5.0 0.00 0.00 0.00 48 1012.9
20260510014543 80 9 2.0 5.0 0.00 0.00 0.00 49 1013.0
20260510014031 80 329 1.0 4.0 0.00 0.00 0.00 49 1012.9
20260510013533 80 340 1.0 4.0 0.00 0.00 0.00 48 1013.0
20260510013036 81 336 2.0 4.0 0.00 0.00 0.00 48 1013.0
20260510012530 81 360 1.0 4.0 0.00 0.00 0.00 50 1013.0
20260510012030 81 5 2.0 5.0 0.00 0.00 0.00 50 1013.0
20260510011546 81 0 1.0 5.0 0.00 0.00 0.00 49 1013.0
20260510011032 81 301 1.0 4.0 0.00 0.00 0.00 48 1013.1
20260510010531 82 333 1.0 4.0 0.00 0.00 0.00 45 1013.1
20260510010047 82 55 1.0 4.0 0.00 0.00 0.00 46 1013.0
20260510005531 82 0 0.0 4.0 0.00 0.00 0.00 47 1013.0
20260510005029 82 349 1.0 4.0 0.00 0.00 0.00 44 1013.1
20260510004544 83 5 2.0 4.0 0.00 0.00 0.00 45 1013.1
20260510004030 83 0 0.0 5.0 0.00 0.00 0.00 48 1013.1
20260510003531 83 323 0.0 5.0 0.00 0.00 0.00 48 1013.1
20260510003046 83 352 1.0 5.0 0.00 0.00 0.00 46 1013.1
20260510002532 83 348 2.0 5.0 0.00 0.00 0.00 48 1013.2
20260510002030 83 5 1.0 4.0 0.00 0.00 0.00 46 1013.1
20260510001539 83 325 1.0 4.0 0.00 0.00 0.00 47 1013.2
20260510001031 83 9 1.0 3.0 0.00 0.00 0.00 47 1013.2
20260510000531 83 26 1.0 4.0 0.00 0.00 0.00 46 1013.4
20260510000040 83 9 2.0 5.0 0.00 0.00 0.00 45 1013.3
20260509235534 83 336 3.0 5.0 0.00 0.00 0.00 47 1013.4
20260509235029 83 15 1.0 4.0 0.00 0.00 0.00 47 1013.5
20260509234545 82 5 0.0 5.0 0.00 0.00 0.00 51 1013.5
20260509234031 82 160 2.0 5.0 0.00 0.00 0.00 49 1013.6
20260509233529 82 178 2.0 5.0 0.00 0.00 0.00 49 1013.5
20260509233035 82 35 1.0 5.0 0.00 0.00 0.00 52 1013.6
20260509232529 82 304 2.0 5.0 0.00 0.00 0.00 50 1013.5
20260509232029 82 114 1.0 5.0 0.00 0.00 0.00 50 1013.6
20260509231536 82 319 1.0 7.0 0.00 0.00 0.00 51 1013.8
20260509231029 81 180 2.0 7.0 0.00 0.00 0.00 51 1013.7
20260509230530 83 153 2.0 6.0 0.00 0.00 0.00 48 1013.9
20260509230042 82 40 3.0 6.0 0.00 0.00 0.00 50 1013.9
20260509225528 82 135 2.0 6.0 0.00 0.00 0.00 50 1013.8
20260509225029 83 11 1.0 8.0 0.00 0.00 0.00 47 1013.9
20260509224540 83 21 3.0 8.0 0.00 0.00 0.00 49 1014.0
20260509224029 83 326 2.0 7.0 0.00 0.00 0.00 50 1014.0
20260509223531 83 41 3.0 7.0 0.00 0.00 0.00 49 1014.1
20260509223038 82 22 2.0 6.0 0.00 0.00 0.00 49 1014.1
20260509222528 82 311 2.0 4.0 0.00 0.00 0.00 49 1014.2
20260509222028 81 307 1.0 6.0 0.00 0.00 0.00 48 1014.2
20260509221538 81 163 1.0 8.0 0.00 0.00 0.00 52 1014.2
20260509221030 82 140 4.0 8.0 0.00 0.00 0.00 51 1014.2
20260509220529 81 330 2.0 5.0 0.00 0.00 0.00 50 1014.2
20260509220042 81 167 2.0 8.0 0.00 0.00 0.00 49 1014.2
20260509215529 82 325 1.0 8.0 0.00 0.00 0.00 50 1014.3
20260509215029 82 352 4.0 8.0 0.00 0.00 0.00 50 1014.3
20260509214536 81 0 2.0 8.0 0.00 0.00 0.00 51 1014.4
20260509214031 80 340 2.0 6.0 0.00 0.00 0.00 52 1014.5
20260509213529 81 176 2.0 6.0 0.00 0.00 0.00 49 1014.4
20260509213042 82 40 1.0 8.0 0.00 0.00 0.00 50 1014.5
20260509212527 81 323 3.0 8.0 0.00 0.00 0.00 51 1014.6
20260509212030 80 5 3.0 7.0 0.00 0.00 0.00 53 1014.6
20260509211539 80 146 2.0 7.0 0.00 0.00 0.00 52 1014.7
20260509211029 80 166 2.0 8.0 0.00 0.00 0.00 52 1014.7
20260509210530 80 175 3.0 8.0 0.00 0.00 0.00 49 1014.6
20260509210045 80 340 2.0 9.0 0.00 0.00 0.00 54 1014.6
20260509205531 79 336 2.0 9.0 0.00 0.00 0.00 55 1014.6
20260509205027 81 327 5.0 9.0 0.00 0.00 0.00 51 1014.7
20260509204537 81 13 2.0 9.0 0.00 0.00 0.00 52 1014.7
20260509204029 80 329 3.0 9.0 0.00 0.00 0.00 53 1014.7
20260509203531 79 352 2.0 6.0 0.00 0.00 0.00 53 1014.7
20260509203043 78 86 1.0 6.0 0.00 0.00 0.00 59 1014.8
20260509202533 78 147 2.0 4.0 0.00 0.00 0.00 56 1014.7
20260509202029 77 59 1.0 7.0 0.00 0.00 0.00 57 1014.8
20260509201543 77 0 2.0 8.0 0.00 0.00 0.00 58 1014.7
20260509201030 76 184 3.0 8.0 0.00 0.00 0.00 58 1014.8
20260509200530 77 133 2.0 7.0 0.00 0.00 0.00 58 1014.9
20260509200045 78 151 3.0 6.0 0.00 0.00 0.00 56 1014.9
20260509195530 79 74 2.0 5.0 0.00 0.00 0.00 56 1014.9
20260509195030 79 129 2.0 5.0 0.00 0.00 0.00 57 1014.9